EHI
0 0 0 0 0 0 0 0 0 0 0 0 0 0 0 0 0 0 0 1 1 1 0 1 2 3 3 3 3 3 3 3 3 3 3 3 3 3 1 0 0 0 0 0
0 0 0 0 0 0 0 0 0 0 0 0 0 0 0 0 1 1 1 1 1 1 0 0 1 2 3 3 3 3 3 3 3 3 3 3 3 3 2 1 0 0 0 0
0 0 0 0 0 0 0 0 0 0 0 0 0 0 0 0 1 2 3 3 2 2 1 1 0 1 1 2 2 3 3 3 3 3 3 3 3 3 3 2 1 0 0 0
0 0 0 0 0 0 0 0 0 0 0 0 0 0 0 0 1 2 3 3 2 1 1 1 0 0 0 1 1 1 2 2 3 3 3 3 3 3 3 2 1 0 0 0
0 0 0 0 0 0 0 0 0 0 0 0 0 0 0 0 0 1 1 1 1 0 1 1 0 0 0 0 0 0 0 1 2 3 3 3 3 3 3 2 1 0 0 0
0 0 0 0 0 0 0 0 0 0 0 0 0 0 0 0 0 0 0 0 0 0 0 0 0 0 0 0 0 0 0 1 2 3 3 3 3 3 3 3 1 0 0 0
0 0 0 0 0 0 0 0 0 0 0 0 0 0 0 0 0 0 0 0 0 0 0 0 0 0 0 0 0 0 0 0 1 2 3 3 3 3 3 3 2 1 0 0
0 0 0 0 0 0 0 0 0 0 0 0 0 0 0 0 0 0 0 0 0 0 0 0 0 0 0 0 0 0 0 0 0 1 2 3 3 3 3 3 3 2 1 0
0 0 0 0 0 0 0 0 0 0 0 0 0 0 0 0 0 0 0 0 0 0 0 0 0 0 0 0 0 0 0 0 0 0 1 1 2 3 3 3 3 3 2 1
0 0 0 0 0 0 0 0 0 0 0 0 0 0 0 0 0 0 0 0 0 0 0 0 0 0 0 0 0 0 0 0 0 0 0 0 1 2 2 2 3 3 3 3
0 0 0 0 0 0 0 0 0 0 0 0 0 0 0 0 0 0 0 0 0 0 0 0 0 0 0 0 0 0 0 0 0 0 0 0 0 1 1 1 1 2 2 2
0 0 0 0 0 0 0 0 0 0 0 0 0 0 0 0 0 0 0 0 0 0 0 0 0 0 0 0 0 0 0 0 0 0 0 0 0 0 0 0 0 1 1 1
0 0 0 0 0 0 0 0 0 0 0 0 0 0 0 0 0 0 0 0 0 0 0 0 0 0 0 0 0 0 0 0 0 0 0 0 0 0 0 0 0 0 0 0
0 0 0 0 0 0 0 0 0 0 0 0 0 0 0 0 0 0 0 0 0 0 0 0 0 0 0 0 0 0 0 0 0 0 0 0 0 0 0 0 0 0 0 0
0 0 0 0 0 0 0 0 0 0 0 0 0 0 0 0 0 0 0 0 0 0 0 0 0 0 0 0 0 0 0 0 0 0 0 0 0 0 0 0 0 0 0 0
0 0 0 0 0 0 0 0 0 0 0 0 0 0 0 0 0 0 0 0 0 0 0 0 0 0 0 0 0 0 0 0 0 0 0 0 0 0 0 0 0 0 0 0
0 0 0 0 0 0 0 0 0 0 0 0 0 0 0 0 0 0 0 0 0 0 0 0 0 0 0 0 0 0 0 0 0 0 0 0 0 0 0 0 0 0 0 0
0 0 0 0 0 0 0 0 0 0 0 0 0 0 0 0 0 0 0 0 0 0 0 0 0 0 0 0 0 0 0 0 0 0 0 0 0 0 0 0 0 0 0 0
0 0 0 0 0 0 0 0 0 0 0 0 0 0 0 0 0 0 0 0 0 0 0 0 0 0 0 0 0 0 0 0 0 0 0 0 0 0 0 0 0 0 0 0
0 0 0 0 0 0 0 0 0 0 0 0 0 0 0 0 0 0 0 0 0 0 0 0 0 0 0 0 0 0 0 0 0 0 0 0 0 0 0 0 0 0 0 0
0 0 0 0 0 0 0 0 0 0 0 0 0 0 0 0 0 0 0 0 0 0 0 0 0 0 0 0 0 0 0 0 0 0 0 0 0 0 0 0 0 0 0 0
0 0 0 0 0 0 0 0 0 0 0 0 0 0 0 0 0 0 0 0 0 0 0 0 0 0 0 0 0 0 0 0 0 0 0 0 0 0 0 0 0 0 0 0
0 0 0 0 0 0 0 0 0 0 0 0 0 0 0 0 0 0 0 0 0 0 0 0 0 0 0 0 0 0 0 0 0 0 0 0 0 0 0 0 0 0 0 0
0 0 0 0 0 0 0 0 0 0 0 0 0 0 0 0 0 0 0 0 0 0 0 0 0 0 0 0 0 0 0 0 0 0 0 0 0 0 0 0 0 0 0 0
0 0 0 0 0 0 0 0 0 0 0 0 0 0 0 0 0 0 0 0 0 0 0 0 0 0 0 0 0 0 0 0 0 0 0 0 0 0 0 0 0 0 0 0
0 0 0 0 0 0 0 0 0 0 0 0 0 0 0 0 0 0 0 0 0 0 0 0 0 0 0 0 0 0 0 0 0 0 0 0 0 0 0 0 0 0 0 0
0 0 0 0 0 0 0 0 0 0 0 0 0 0 0 0 0 0 0 0 0 0 0 0 0 0 0 0 0 0 0 0 0 0 0 0 0 0 0 0 0 0 0 0
Wind_Speed
3 2 1 2 3 3 2 2 4 3 2 2 2 1 0 1 2 3 3 2 2 2 3 3 4 4 3 4 4 3 3 4 4 3 3 3 3 2 2 1 1 1 2 2
2 0 2 4 3 3 3 3 4 3 1 2 1 1 3 2 3 4 4 3 3 3 4 4 4 4 4 4 4 3 3 3 3 3 3 2 2 2 2 2 1 1 1 2
2 3 3 3 2 3 3 2 3 2 2 0 1 2 2 2 3 3 4 4 4 5 4 4 5 4 4 4 4 3 3 3 3 3 3 3 2 2 1 2 1 1 2 2
0 3 0 4 1 6 6 4 3 3 2 2 1 1 0 1 1 3 4 4 4 5 5 6 5 4 4 4 3 3 3 4 3 3 3 2 2 2 2 2 2 2 2 3
2 1 2 2 1 2 4 2 2 3 2 1 1 3 3 3 2 2 2 2 3 4 4 5 5 5 4 4 4 3 4 4 3 2 2 3 3 3 3 2 3 2 2 2
2 2 4 5 3 1 6 1 1 3 2 1 3 3 4 4 3 3 4 3 4 4 4 4 5 4 4 5 4 5 4 3 3 2 2 2 3 2 2 1 2 2 2 1
2 2 4 3 1 4 3 5 3 2 3 2 2 4 4 3 2 2 3 4 4 4 4 5 5 4 4 4 5 5 4 3 3 3 3 2 2 2 2 1 1 2 2 2
2 2 4 3 2 3 5 4 3 3 2 2 1 1 1 2 2 3 4 4 4 4 5 5 4 3 4 5 5 4 4 3 3 3 3 2 1 2 2 1 1 2 1 2
4 5 4 1 4 4 5 4 3 3 2 2 2 0 1 1 2 3 3 4 4 4 5 6 5 3 4 6 5 4 4 4 4 4 3 3 2 2 2 1 1 1 1 1
2 1 2 2 3 3 4 4 3 3 3 3 2 1 0 1 2 3 4 4 4 4 5 6 6 5 4 5 4 3 4 4 3 3 3 3 2 1 1 1 1 1 1 2
1 1 2 2 2 3 3 3 3 2 2 2 2 1 1 1 3 3 4 4 3 4 5 6 6 5 5 5 3 3 4 3 3 3 2 2 2 2 2 3 3 3 2 2
5 6 5 3 2 3 4 3 2 2 1 0 2 2 1 2 3 3 4 4 4 5 5 6 6 5 5 5 3 3 3 3 2 2 2 1 2 3 4 3 4 3 4 3
5 4 4 3 3 3 3 2 2 2 2 1 1 1 1 2 3 3 4 4 4 5 5 6 5 5 5 4 3 3 3 3 2 2 2 2 2 1 3 4 3 3 3 4
5 5 4 2 2 2 3 2 2 2 1 1 1 2 2 2 3 4 4 5 4 5 5 5 5 5 5 4 4 4 3 3 3 2 2 2 2 2 2 2 3 3 3 3
4 5 5 4 3 3 2 3 3 2 1 2 1 2 2 3 3 5 5 5 4 4 5 5 5 6 5 4 4 4 3 3 3 2 2 2 2 2 2 2 2 3 2 3
4 5 6 5 4 2 2 2 1 1 2 2 3 3 3 3 4 5 5 4 4 5 5 4 5 6 5 3 3 3 3 5 4 3 3 2 2 2 2 2 2 2 2 3
6 4 3 3 2 1 1 1 1 1 1 2 3 3 3 4 4 5 6 6 5 5 5 4 5 5 4 3 3 3 3 4 6 4 3 2 2 2 2 2 2 2 3 3
6 5 5 4 3 1 1 0 0 0 1 2 3 3 4 4 5 6 7 6 6 6 6 5 4 4 4 4 3 2 3 3 3 3 3 2 3 2 2 2 2 3 3 2
4 4 3 2 2 2 1 0 1 1 2 2 2 3 4 5 5 6 5 5 5 6 7 6 7 5 4 4 3 2 3 3 3 3 3 3 3 2 2 2 2 2 2 2
3 3 2 2 1 1 0 1 1 2 2 2 3 4 5 6 6 6 5 5 5 5 6 6 5 5 5 4 4 2 3 3 3 3 3 2 2 2 2 2 2 2 2 1
2 2 2 1 0 0 1 1 2 3 4 3 3 4 5 6 6 5 4 5 7 6 6 6 4 4 4 4 4 3 3 3 3 3 3 2 2 2 2 2 2 1 1 1
1 1 1 1 1 2 2 2 3 4 4 4 4 5 5 6 6 5 5 5 6 7 5 4 4 5 6 5 3 3 3 3 3 3 3 2 2 2 2 2 1 1 1 1
0 1 0 1 2 3 3 3 3 4 4 5 5 5 5 5 4 4 6 5 5 7 5 5 7 9 8 4 3 3 4 4 3 3 3 3 2 2 2 2 1 0 0 1
2 2 2 2 2 2 3 5 5 4 5 5 5 6 5 4 4 4 4 6 8 8 5 6 9 8 6 3 3 4 4 4 3 3 3 2 2 2 1 1 1 0 0 0
3 3 3 2 3 3 5 5 5 5 5 4 6 6 4 3 4 4 4 5 7 7 5 6 7 7 4 3 3 3 3 3 3 3 2 2 2 1 1 1 1 1 1 1
3 4 4 4 4 4 4 3 3 4 4 4 4 4 4 3 3 3 3 4 5 6 5 4 4 4 3 3 3 3 3 3 3 2 2 2 1 1 1 1 1 1 1 1
3 3 3 3 4 4 4 3 4 4 4 4 5 4 4 3 3 4 4 4 4 4 4 4 4 3 3 3 3 3 3 3 2 2 1 1 1 1 1 1 1 1 1 1
Wind_Direction
231 250 20 18 4 12 45 164 164 185 174 252 249 219 277 21 22 11 358 360 354 317 306 308 311 304 300 294 295 294 299 300 293 288 291 295 296 302 306 292 260 236 234 251
337 81 60 28 12 33 51 73 112 114 142 258 236 70 35 23 25 10 348 334 320 310 312 308 304 301 305 304 300 301 300 298 301 309 317 315 309 313 332 331 313 300 255 248
288 306 37 2 346 87 71 62 131 148 213 218 50 54 25 10 16 352 342 337 331 323 308 297 297 296 293 291 296 305 302 301 308 314 317 311 315 338 319 302 311 309 280 254
221 21 3 240 90 110 100 60 79 105 117 134 162 213 350 38 30 349 342 344 334 325 320 314 310 307 305 314 321 318 316 314 312 313 310 306 318 311 296 295 291 283 271 253
119 138 250 275 316 145 129 64 65 107 93 92 79 43 2 341 10 332 323 315 307 309 312 325 326 321 328 331 332 336 328 319 312 306 309 312 304 293 283 287 292 284 280 262
119 151 229 245 277 140 101 63 287 121 119 105 71 34 301 312 340 345 342 334 331 327 331 334 325 331 339 329 334 323 310 303 304 304 302 293 281 276 276 278 288 302 314 292
157 199 255 261 275 72 102 238 240 146 143 131 160 213 250 293 328 335 334 329 332 337 331 317 318 334 333 324 315 301 302 305 312 307 297 290 285 281 299 309 324 319 312 307
150 171 254 284 88 135 200 202 159 141 145 141 178 234 322 342 331 333 340 338 339 336 325 314 319 335 325 310 296 301 307 312 314 309 308 324 312 307 315 320 320 307 318 323
170 201 226 176 145 170 155 143 141 134 145 134 123 138 3 348 327 325 326 321 320 323 317 313 312 312 303 295 302 313 316 310 308 314 314 315 304 299 312 309 294 293 299 301
87 180 158 119 113 120 132 139 147 145 146 128 138 173 327 314 310 316 314 311 315 325 322 313 311 311 295 298 310 322 318 308 307 316 321 328 328 300 280 281 270 273 268 276
113 191 89 46 108 135 118 108 112 113 138 153 149 179 220 265 285 289 295 296 303 309 306 302 309 315 313 315 322 328 322 315 316 316 310 327 329 307 276 260 232 218 235 233
202 209 169 203 192 129 108 106 120 111 86 136 156 189 230 258 266 278 294 302 310 308 308 307 310 312 313 314 320 326 325 321 309 301 300 299 305 319 318 288 286 255 240 234
173 173 148 148 119 106 119 129 123 129 146 172 234 214 233 260 271 283 296 302 301 295 299 305 308 308 310 310 317 317 307 301 292 288 285 284 278 273 306 323 323 301 280 267
123 107 94 99 117 97 98 99 92 81 101 189 234 264 269 274 290 294 289 286 288 292 297 298 303 302 297 301 313 311 306 302 300 288 285 282 275 269 268 276 302 304 292 271
111 119 138 135 104 80 75 72 65 29 343 316 290 281 276 280 286 286 284 288 295 297 293 297 302 298 296 299 306 307 306 306 304 297 290 282 276 278 275 273 275 281 298 301
115 99 106 108 108 95 77 69 52 315 311 308 303 291 278 273 279 290 294 299 301 295 288 289 288 288 295 296 304 304 302 303 305 299 299 299 285 271 270 274 282 283 276 274
116 121 122 126 136 130 140 152 179 268 320 322 304 303 315 317 315 313 306 304 293 280 278 278 281 288 292 290 288 291 297 305 306 305 294 290 283 272 269 263 265 271 272 266
147 161 161 163 167 171 203 194 148 311 279 280 301 326 332 325 308 301 301 309 317 313 302 286 286 295 300 296 285 282 289 297 300 293 291 291 293 282 276 271 268 273 287 297
114 121 126 132 139 133 128 235 287 296 304 314 321 314 305 301 295 295 304 313 315 310 302 296 298 301 298 294 297 289 289 297 302 298 293 296 309 318 307 289 286 275 276 286
102 111 111 99 86 92 63 292 308 311 296 293 299 297 300 298 296 299 302 294 279 271 284 294 297 301 296 290 296 292 289 289 290 294 299 300 303 301 293 285 287 281 285 287
130 138 137 136 242 293 250 261 285 291 290 285 283 283 286 291 296 298 297 296 293 292 297 297 296 292 288 289 292 288 288 285 288 294 294 288 290 289 290 285 285 288 293 295
153 162 173 202 238 282 279 273 273 282 288 288 286 288 292 293 295 295 281 265 276 292 299 289 281 281 285 283 278 280 283 280 279 286 285 279 280 286 288 287 281 300 326 330
242 215 260 273 265 275 291 292 286 286 285 283 282 279 276 275 277 281 290 285 284 290 291 282 284 288 290 287 276 277 281 280 275 272 272 271 271 269 263 262 262 276 0 358
286 273 263 262 276 298 296 290 290 285 281 280 276 272 268 278 290 278 264 285 293 294 285 286 292 296 297 292 285 282 283 283 278 268 261 258 260 259 247 228 231 249 192 161
270 272 272 272 276 271 267 274 290 293 291 288 287 284 274 244 252 278 288 295 302 301 295 297 299 301 296 286 283 282 283 283 282 273 256 248 249 248 239 215 204 204 200 192
260 257 253 246 246 255 264 271 276 278 279 285 290 287 282 276 277 285 293 301 303 303 298 295 296 294 285 283 284 289 295 302 305 295 284 268 249 233 198 203 210 213 212 169
276 275 274 279 278 269 263 260 261 266 263 264 276 281 281 284 291 296 300 303 302 302 300 299 299 295 291 287 288 294 303 308 310 299 291 264 231 207 181 169 183 194 182 141